Location: Rounton
(54.4000°N, 1.3500°W)
Time: 07:26:19
(UTC+00:00)

Vanguard 1 Rocket - Pass Details

Date: 01 December 2021
Orbit: 651 x 4224 km, 34.3° (Epoch: 19 January)

Event Time Altitude Azimuth Distance (km) Brightness Sun altitude
Rises 07:13:33 0° 262° (W) 6,350 11.2 -6.9°
Reaches altitude 10° 07:17:38 10° 255° (WSW) 5,767 11.1 -6.4°
Maximum altitude 07:34:19 37° 197° (SSW) 5,108 11.4 -4.3°
Drops below altitude 10° 07:56:01 10° 142° (SE) 7,368 13.7 -1.7°
Sets 08:02:18 0° 135° (SE) 8,221 15.0 -1.0°
